{"data":{"norad_id":65342,"intl_designator":"2025-189V","name":"STARLINK-35092","alt_names":[],"object_type":"PAYLOAD","status":"ACTIVE","operator":null,"country":"US","launch_date":"2025-08-27","launch_site_code":"AFETR","launch_vehicle":null,"mission":null,"orbit_class":"UNKNOWN","rcs_meters":null,"size_class":null,"mass_kg":null,"dimensions":null,"purposes":["comms"],"wikipedia_slug":null,"has_3d_model":false,"image_url":null,"decayed_at":null,"tle_current":{"epoch":"2026-05-24T21:50:30.905952Z","epoch_age_seconds":92977,"freshness":"FRESH","line1":"1 65342U 25189V   26144.91007993  .00022522  00000+0  73506-3 0  9996","line2":"2 65342  53.1594 212.1999 0001149  81.8442 278.2690 15.31712132 42695","mean_motion":15.31712132,"eccentricity":0.0001149,"inclination_deg":53.1594,"raan_deg":212.1999,"arg_perigee_deg":81.8442,"mean_anomaly_deg":278.269,"bstar":0.00073506,"rev_number":4269,"period_min":94.012443325088,"perigee_km":469.91689879221,"apogee_km":471.49076241509,"semimajor_km":6848.8408306036,"source":"CELESTRAK","updated_at":"2026-05-25T13:38:20.762360Z"}}}